Torna al catalogo

FENGYUN 1C DEB

AttivoPO
NORAD 30447·DEBRIS·🇨🇳 China

Lanciato May 10, 1999 da Taiyuan Satellite Launch Center

Loading…

Prossimi Passaggi (prossime 24 ore)

TLE

AggiornatoSource: Space-Track

Epoca: Sep 13, 2026, 06:22 UTC

1 30447U 99025AFJ 26256.26545086  .00005200  00000-0  10369-2 0  9998
2 30447  98.9552 144.8015 0052332 276.9086 208.2849 14.61599590 20918

Traccia FENGYUN 1C DEB in tempo reale con AllMySat

Download on the App Store